Voltar ao catálogo

STARLINK-31101

AtivoComunicaçõesVLEO
NORAD 58737·PAYLOAD·🇺🇸 United States

Lançado Jan 7, 2024 de Cape Canaveral Space Force Station

Loading…

Próximas Passagens (próximas 24 horas)

TLE

AtualizadoSource: CelesTrak SupGP

Época: Sep 14, 2026, 22:04 UTC

1 58737C 24005K   26257.91993056  .00030835  00000+0  11177-2 0  2579
2 58737  43.0022 231.0189 0001228 267.8483 129.9075 15.27539114    10

Acompanhe STARLINK-31101 em tempo real com AllMySat

Download on the App Store